TIME,DELAY(SENSOR),PRES,T(CTD),SAL,OXYGEN,RAWTEMP,T(OPTODE),TCPHASE,FLUOR,BETA(BETA700),BETA(BETA412),BETA(BETA440),CDOM,C(CSC),CHECK
1334952074,5809,981.2399902343750000,4.2420001029968260,34.4948997497558600,45.9276084899902340,672.3508300781250000,4.2205090522766110,54.2724609375000000,52,100,87,79,84,15273,37604
1334952293,5807,960.0599975585938000,4.3763999938964840,34.4860000610351560,44.4163513183593750,668.2681884765625000,4.3553872108459470,54.4436988830566400,53,100,88,78,83,15275,19872
1334952512,5808,939.4400024414062000,4.4552998542785645,34.4817008972168000,43.8111991882324200,665.9957275390625000,4.4303841590881350,54.5045204162597660,52,101,91,79,85,15270,14004
1334952744,5807,917.8499755859375000,4.5074000358581540,34.4781990051269500,43.7655601501464840,664.1641235351562000,4.4907879829406740,54.4887809753418000,52,100,88,79,84,15269,25691
1334952974,5806,896.9000244140625000,4.5819001197814940,34.4720993041992200,43.0354690551757800,662.1212158203125000,4.5581130981445310,54.5721702575683600,52,101,84,80,83,15272,20144
1334953207,5807,875.9500122070312000,4.6462001800537110,34.4658012390136700,42.3053016662597660,660.1970214843750000,4.6214871406555180,54.6519088745117200,52,101,88,79,83,15270,41047
1334953439,5808,855.3599853515625000,4.7034997940063480,34.4589004516601560,41.3718490600585940,658.4254760742188000,4.6797938346862790,54.7741584777832000,53,101,89,81,83,15272,32372
1334953682,5808,834.2800292968750000,4.7962999343872070,34.4413986206054700,39.7737884521484400,655.5808715820312000,4.7733497619628910,54.9841384887695300,53,103,90,79,82,15267,19557
1334953923,5808,813.6799926757812000,4.8491001129150390,34.4322013854980500,38.9934310913085940,653.8925781250000000,4.8288331031799320,55.0818481445312500,52,102,91,81,83,15270,46231
1334954178,5807,792.7100219726562000,4.9103999137878420,34.4253005981445300,38.2815017700195300,652.0604248046875000,4.8890128135681150,55.1733894348144500,53,103,89,80,83,15271,40750
1334954443,5808,771.6599731445312000,5.0131001472473145,34.4174003601074200,37.4736595153808600,648.9248046875000000,4.9919128417968750,55.2684211730957000,52,101,88,80,83,15270,14634
1334954698,5807,749.7199707031250000,5.1057000160217285,34.4010009765625000,36.1951713562011700,646.1912231445312000,5.0815391540527340,55.4382400512695300,53,102,89,80,83,15271,27899
1334954908,5806,728.1400146484375000,5.3015999794006350,34.3688011169433600,35.0466613769531250,640.1694946289062000,5.2786831855773930,55.5649414062500000,52,102,91,80,85,15270,22551
1334955127,5807,706.9500122070312000,5.3937997817993160,34.3476982116699200,34.7183914184570300,637.2327880859375000,5.3746871948242190,55.5830001831054700,53,104,87,80,84,15267,26023
1334955359,5807,686.4899902343750000,5.4741001129150390,34.3377990722656250,34.9540596008300800,634.8870849609375000,5.4513049125671390,55.5253410339355500,54,105,90,80,84,15267,32926
1334955602,5808,664.7600097656250000,5.5693001747131350,34.3252983093261700,35.3319702148437500,631.9229736328125000,5.5480461120605470,55.4325599670410160,53,103,87,79,84,15264,36408
1334955845,5806,644.3099975585938000,5.7424001693725590,34.2977981567382800,37.1783218383789060,626.6281127929688000,5.7206249237060550,55.0768318176269500,53,104,90,80,84,15264,19164
1334956119,5806,623.7999877929688000,5.7855000495910645,34.2780990600585940,39.6210708618164060,625.2753295898438000,5.7646708488464355,54.6729011535644500,53,104,89,81,83,15263,24887
1334956362,5808,602.5000000000000000,5.9155998229980470,34.2438011169433600,46.3452987670898440,621.4097290039062000,5.8904299736022950,53.6032295227050800,52,105,96,80,83,15261,136
1334956605,5806,580.8800048828125000,6.0176000595092770,34.2198982238769500,47.8707008361816400,618.0313720703125000,6.0002160072326660,53.3376502990722660,52,105,88,80,82,15261,40347
1334956837,5806,560.4000244140625000,6.1690001487731930,34.2051010131835940,53.7392807006835940,613.3037719726562000,6.1536540985107420,52.4417495727539060,52,103,91,79,82,15265,13305
1334957078,5808,538.8099975585938000,6.4621000289916990,34.2094001770019500,55.7173805236816400,604.3261718750000000,6.4444260597229000,52.0560607910156250,52,104,92,80,82,15261,47167
1334957311,5809,518.2999877929688000,6.6329002380371090,34.1781997680664060,64.8916168212890600,598.8004760742188000,6.6230068206787110,50.7565307617187500,52,105,87,80,82,15263,43216
1334961382,5964,198.8999938964843800,21.0016002655029300,35.0060005187988300,217.9651947021484400,135.6020965576172000,20.9875907897949220,30.3992996215820300,83,114,91,82,65,15209,26748
1334961572,5805,192.8200073242187500,21.6756000518798830,35.0424995422363300,223.5455932617187500,113.5852966308593800,21.6630592346191400,29.8281707763671880,95,115,90,82,64,15196,10653
1334961733,5807,186.7700042724609400,21.9578990936279300,35.0834999084472660,228.7870941162109400,104.6295013427734400,21.9382190704345700,29.4554996490478500,100,119,91,83,62,15190,18174
1334961863,5807,180.1100006103515600,22.1406993865966800,35.0465011596679700,231.1307067871093800,98.7052536010742200,22.1203804016113280,29.2668800354003900,102,118,92,83,62,15174,10647
1334961961,5807,174.1900024414062500,22.4953994750976560,35.0597991943359400,232.9024963378906200,87.6299285888671900,22.4612407684326170,29.0415992736816400,102,117,92,82,62,15173,9416
1334962067,5805,168.9100036621093800,23.1194000244140620,35.0890007019043000,235.0914001464843800,67.4388580322265600,23.0838394165039060,28.6838397979736330,115,119,93,83,61,15162,19845
1334962285,5805,163.5000000000000000,23.4157009124755860,35.0801010131835940,239.0173034667968800,57.0969200134277340,23.4033794403076170,28.3742408752441400,120,122,94,84,61,15156,2140
1334962541,5807,156.7299957275390600,23.5405998229980470,35.0746994018554700,240.7404022216797000,52.8583297729492200,23.5344791412353500,28.2437591552734380,114,123,91,84,60,15124,14288
1334962666,5808,150.4100036621093800,23.5650005340576170,35.0560989379882800,241.6656951904297000,51.8893089294433600,23.5644607543945300,28.1902008056640620,108,128,94,86,59,15132,29181
1334962793,5805,144.7200012207031200,23.5911006927490230,35.0544013977050800,242.7471008300781200,51.1948699951171900,23.5859508514404300,28.1335201263427730,106,127,94,84,61,15127,34000
1334962935,5808,138.8200073242187500,23.6592006683349600,35.0546989440918000,243.5794067382812500,49.0965309143066400,23.6508903503417970,28.0706596374511720,91,131,94,87,60,15134,47036
1334963080,5807,132.8000030517578000,23.6588993072509770,35.0414009094238300,244.1974029541015600,48.9645500183105500,23.6549797058105470,28.0416603088378900,88,131,96,87,59,15121,1456
1334963223,5807,126.8099975585937500,23.6109008789062500,35.0117988586425800,244.8690032958984400,50.3350181579589840,23.6125602722167970,28.0290393829345700,87,131,92,85,58,15123,33838
1334963386,5806,121.0199966430664000,23.6487007141113280,35.0124015808105500,244.9066009521484400,49.2835884094238300,23.6450996398925780,28.0143108367919920,85,130,93,84,58,15120,51963
1334963620,5807,115.2900009155273400,23.7141990661621100,35.0108985900878900,245.0379943847656200,47.2202491760253900,23.7089805603027340,27.9831409454345700,78,130,96,87,57,15116,19888
1334963813,5805,108.8399963378906200,23.7166996002197270,34.9991989135742200,245.6132049560547000,47.1109886169433600,23.7123699188232420,27.9564495086669920,75,128,92,87,57,15110,31124
1334963955,5807,102.4700012207031200,23.7437992095947270,34.9804992675781250,245.4571990966797000,46.2143516540527340,23.7401409149169920,27.9522495269775400,75,127,93,88,57,15108,21172
1334965615,5806,21.9400005340576170,24.0778007507324220,34.9777984619140600,245.4985961914062500,34.3715209960937500,24.1072406768798830,27.8040199279785160,53,124,91,85,57,15089,59413
1334965670,5806,19.4599990844726560,24.0907993316650400,34.9776000976562500,245.4801940917968800,33.8583488464355500,24.1231708526611330,27.7986202239990230,52,122,91,85,58,15097,50944
1334965722,5807,17.1299991607666000,24.0939998626709000,34.9786987304687500,245.4185943603515600,33.6149406433105500,24.1307201385498050,27.7983303070068360,51,122,93,87,57,15095,48674
1334965774,5806,14.8000001907348630,24.1005001068115230,34.9780006408691400,245.5260925292968800,33.6489601135253900,24.1296596527099600,27.7939395904541000,51,121,94,85,54,15096,48416
1334965826,5806,12.4300003051757810,24.1068992614746100,34.9779014587402340,245.3825988769531200,33.3473281860351560,24.1390209197998050,27.7964706420898440,51,122,93,85,51,15095,43617
1334965878,5806,10.1499996185302730,24.1189994812011720,34.9774017333984400,245.4924011230468800,33.1996116638183600,24.1436100006103500,27.7900600433349600,50,120,91,86,60,15102,18541
1334965931,5808,8.0100002288818360,24.1345996856689450,34.9779014587402340,245.4951019287109400,32.5915298461914060,24.1624794006347660,27.7823295593261720,50,120,92,84,61,15100,43261
1334965985,5809,6.0599999427795410,24.1720008850097660,34.9785003662109400,245.3359985351562500,32.1331291198730500,24.1767101287841800,27.7836093902587900,50,124,95,84,57,15110,14994
1334966046,5805,4.0199999809265140,24.2019996643066400,34.9780998229980500,245.3294982910156200,31.0677299499511720,24.2097797393798830,27.7708702087402340,50,120,95,84,62,15111,52208
1334966099,5806,3.0699999332427980,0.0000000000000000,0.0000000000000000,245.5726013183593800,29.9564990997314450,24.2442798614501950,27.7465095520019530,50,121,95,84,51,15113,58891
1334966126,5805,2.2699999809265137,0.0000000000000000,0.0000000000000000,245.3197021484375000,30.7161407470703120,24.2206897735595700,27.7667407989501950,50,119,97,85,51,15113,26104
1334966153,5805,1.4299999475479126,0.0000000000000000,0.0000000000000000,245.4532928466797000,29.8564796447753900,24.2473793029785160,27.7504692077636720,50,120,94,83,54,15111,47361
